START_TIME,STEP,MOV.,EG07,t_acc.,EG08,t_acc.,EG09,t_acc.,EB05,t_acc.,EBP05,t_acc.
1981-08-26 18:00:23.690 ,0,0,0.,1.2,0.,1.2,0.,1.2,,0.0,,0.0
1981-08-26 18:00:24.890 ,0,0,0.,1.2,0.,1.2,0.,1.2,,0.0,,0.0
1981-08-26 18:00:26.090 ,0,0,0.,1.2,0.,1.2,0.,1.2,,0.0,,0.0
1981-08-26 18:00:27.290 ,0,0,0.,1.2,0.,1.2,0.,1.2,,0.0,,0.0
1981-08-26 18:00:28.490 ,0,0,0.,1.2,0.,1.2,0.,1.2,,0.0,,0.0
1981-08-26 18:00:29.690 ,0,0,0.,1.2,0.,1.2,0.,1.2,,0.0,,0.0
1981-08-26 18:00:30.890 ,0,0,0.,1.2,0.,1.2,0.,1.2,,0.0,,0.0
1981-08-26 18:00:32.090 ,0,0,0.,1.2,0.,1.2,0.,1.2,,0.0,,0.0
1981-08-26 18:00:33.290 ,0,0,0.,1.2,0.,1.2,0.,1.2,,0.0,,0.0
1981-08-26 18:00:34.490 ,0,0,1.,1.2,1.,1.2,0.,1.2,,0.0,,0.0
1981-08-26 18:00:35.690 ,0,0,0.,1.2,0.,1.2,0.,1.2,,0.0,,0.0
1981-08-26 18:00:36.890 ,0,0,0.,1.2,0.,1.2,0.,1.2,,0.0,,0.0
1981-08-26 18:00:38.090 ,0,0,0.,1.2,0.,1.2,0.,1.2,,0.0,,0.0
1981-08-26 18:00:39.290 ,0,0,0.,1.2,0.,1.2,0.,1.2,,0.0,,0.0
1981-08-26 18:00:40.490 ,0,0,0.,1.2,0.,1.2,0.,1.2,,0.0,,0.0
1981-08-26 18:00:41.690 ,0,0,0.,1.2,0.,1.2,0.,1.2,,0.0,,0.0
1981-08-26 18:00:42.890 ,0,0,0.,1.2,0.,1.2,0.,1.2,,0.0,,0.0
1981-08-26 18:00:44.090 ,0,0,0.,1.2,0.,1.2,0.,1.2,,0.0,,0.0
1981-08-26 18:00:45.290 ,0,0,0.,1.2,0.,1.2,0.,1.2,,0.0,,0.0
1981-08-26 18:00:46.490 ,0,0,0.,1.2,0.,1.2,0.,1.2,,0.0,,0.0
1981-08-26 18:00:47.690 ,1,0,0.,1.2,0.,1.2,0.,1.2,,0.0,,0.0
1981-08-26 18:00:48.890 ,1,0,0.,1.2,0.,1.2,0.,1.2,,0.0,,0.0
1981-08-26 18:00:50.090 ,1,0,0.,1.2,0.,1.2,0.,1.2,,0.0,,0.0
1981-08-26 18:00:51.290 ,1,0,0.,1.2,0.,1.2,0.,1.2,,0.0,,0.0
1981-08-26 18:00:52.490 ,1,0,0.,1.2,0.,1.2,0.,1.2,,0.0,,0.0
1981-08-26 18:00:53.690 ,1,0,0.,1.2,0.,1.2,0.,1.2,,0.0,,0.0
1981-08-26 18:00:54.890 ,1,0,1.,1.2,0.,1.2,0.,1.2,,0.0,,0.0
1981-08-26 18:00:56.090 ,1,0,0.,1.2,0.,1.2,0.,1.2,,0.0,,0.0
1981-08-26 18:00:57.290 ,1,0,0.,1.2,0.,1.2,0.,1.2,,0.0,,0.0
1981-08-26 18:00:58.490 ,1,0,1.,1.2,0.,1.2,0.,1.2,,0.0,,0.0
1981-08-26 18:00:59.690 ,1,0,1.,1.2,0.,1.2,0.,1.2,,0.0,,0.0
1981-08-26 18:01:00.890 ,1,0,0.,1.2,0.,1.2,0.,1.2,,0.0,,0.0
1981-08-26 18:01:02.090 ,1,0,2.,1.2,0.,1.2,0.,1.2,,0.0,,0.0
1981-08-26 18:01:03.290 ,1,0,1.,1.2,0.,1.2,0.,1.2,,0.0,,0.0
1981-08-26 18:01:04.490 ,1,0,0.,1.2,0.,1.2,0.,1.2,,0.0,,0.0
1981-08-26 18:01:05.690 ,1,0,0.,1.2,0.,1.2,0.,1.2,,0.0,,0.0
1981-08-26 18:01:06.890 ,1,0,0.,1.2,0.,1.2,0.,1.2,,0.0,,0.0
1981-08-26 18:01:08.090 ,1,0,0.,1.2,0.,1.2,0.,1.2,,0.0,,0.0
1981-08-26 18:01:09.290 ,1,0,1.,1.2,0.,1.2,0.,1.2,,0.0,,0.0
1981-08-26 18:01:10.490 ,1,0,0.,1.2,0.,1.2,0.,1.2,,0.0,,0.0
1981-08-26 18:01:11.690 ,1,0,0.,1.2,0.,1.2,0.,1.2,,0.0,,0.0
1981-08-26 18:01:12.890 ,1,0,1.,1.2,1.,1.2,0.,1.2,,0.0,,0.0
1981-08-26 18:01:14.090 ,1,0,0.,1.2,0.,1.2,0.,1.2,,0.0,,0.0
1981-08-26 18:01:15.290 ,1,0,0.,1.2,0.,1.2,0.,1.2,,0.0,,0.0
1981-08-26 18:01:16.490 ,1,0,0.,1.2,0.,1.2,0.,1.2,,0.0,,0.0
1981-08-26 18:01:17.690 ,1,0,0.,1.2,0.,1.2,0.,1.2,,0.0,,0.0
1981-08-26 18:01:18.890 ,1,0,1.,1.2,0.,1.2,0.,1.2,,0.0,,0.0
1981-08-26 18:01:20.090 ,1,0,0.,1.2,0.,1.2,0.,1.2,,0.0,,0.0
1981-08-26 18:01:21.290 ,1,0,1.,1.2,0.,1.2,0.,1.2,,0.0,,0.0
1981-08-26 18:01:22.490 ,1,0,0.,1.2,0.,1.2,0.,1.2,,0.0,,0.0
1981-08-26 18:01:23.690 ,1,0,0.,1.2,0.,1.2,0.,1.2,,0.0,,0.0
1981-08-26 18:01:24.890 ,1,0,0.,1.2,0.,1.2,0.,1.2,,0.0,,0.0
1981-08-26 18:01:26.090 ,1,0,0.,1.2,0.,1.2,0.,1.2,,0.0,,0.0
1981-08-26 18:01:27.290 ,1,0,0.,1.2,0.,1.2,0.,1.2,,0.0,,0.0
1981-08-26 18:01:28.490 ,1,0,1.,1.2,1.,1.2,1.,1.2,,0.0,,0.0
1981-08-26 18:01:29.690 ,1,0,0.,1.2,0.,1.2,0.,1.2,,0.0,,0.0
1981-08-26 18:01:30.890 ,1,0,1.,1.2,1.,1.2,0.,1.2,,0.0,,0.0
1981-08-26 18:01:32.090 ,1,0,0.,1.2,0.,1.2,0.,1.2,,0.0,,0.0
1981-08-26 18:01:33.290 ,1,0,0.,1.2,0.,1.2,0.,1.2,,0.0,,0.0
1981-08-26 18:01:34.490 ,1,0,1.,1.2,0.,1.2,0.,1.2,,0.0,,0.0
1981-08-26 18:01:35.690 ,2,0,0.,1.2,0.,1.2,0.,1.2,,0.0,,0.0
1981-08-26 18:01:36.890 ,2,0,0.,1.2,0.,1.2,0.,1.2,,0.0,,0.0
1981-08-26 18:01:38.090 ,2,0,0.,1.2,0.,1.2,0.,1.2,,0.0,,0.0
1981-08-26 18:01:39.290 ,2,0,1.,1.2,0.,1.2,0.,1.2,,0.0,,0.0
1981-08-26 18:01:40.490 ,2,0,0.,1.2,0.,1.2,0.,1.2,,0.0,,0.0
1981-08-26 18:01:41.690 ,2,0,0.,1.2,0.,1.2,0.,1.2,,0.0,,0.0
1981-08-26 18:01:42.890 ,2,0,0.,1.2,0.,1.2,0.,1.2,,0.0,,0.0
1981-08-26 18:01:44.090 ,2,0,0.,1.2,0.,1.2,0.,1.2,,0.0,,0.0
1981-08-26 18:01:45.290 ,2,0,0.,1.2,0.,1.2,0.,1.2,,0.0,,0.0
1981-08-26 18:01:46.490 ,2,0,0.,1.2,0.,1.2,0.,1.2,,0.0,,0.0
1981-08-26 18:01:47.690 ,2,0,1.,1.2,1.,1.2,0.,1.2,,0.0,,0.0
1981-08-26 18:01:48.890 ,2,0,0.,1.2,0.,1.2,0.,1.2,,0.0,,0.0
1981-08-26 18:01:50.090 ,2,0,1.,1.2,1.,1.2,0.,1.2,,0.0,,0.0
1981-08-26 18:01:51.290 ,2,0,0.,1.2,0.,1.2,0.,1.2,,0.0,,0.0
1981-08-26 18:01:52.490 ,2,0,1.,1.2,1.,1.2,1.,1.2,,0.0,,0.0
1981-08-26 18:01:53.690 ,2,0,0.,1.2,0.,1.2,0.,1.2,,0.0,,0.0
1981-08-26 18:01:54.890 ,2,0,1.,1.2,0.,1.2,0.,1.2,,0.0,,0.0
1981-08-26 18:01:56.090 ,2,0,0.,1.2,0.,1.2,0.,1.2,,0.0,,0.0
1981-08-26 18:01:57.290 ,2,0,0.,1.2,0.,1.2,0.,1.2,,0.0,,0.0
1981-08-26 18:01:58.490 ,2,0,0.,1.2,0.,1.2,0.,1.2,,0.0,,0.0
1981-08-26 18:01:59.690 ,2,0,0.,1.2,0.,1.2,0.,1.2,,0.0,,0.0
1981-08-26 18:02:00.890 ,2,0,0.,1.2,0.,1.2,0.,1.2,,0.0,,0.0
1981-08-26 18:02:02.090 ,2,0,0.,1.2,0.,1.2,0.,1.2,,0.0,,0.0
1981-08-26 18:02:03.290 ,2,0,0.,1.2,0.,1.2,0.,1.2,,0.0,,0.0
1981-08-26 18:02:04.490 ,2,0,0.,1.2,0.,1.2,0.,1.2,,0.0,,0.0
1981-08-26 18:02:05.690 ,2,0,0.,1.2,0.,1.2,0.,1.2,,0.0,,0.0
1981-08-26 18:02:06.890 ,2,0,0.,1.2,0.,1.2,0.,1.2,,0.0,,0.0
1981-08-26 18:02:08.090 ,2,0,0.,1.2,0.,1.2,0.,1.2,,0.0,,0.0
1981-08-26 18:02:09.290 ,2,0,1.,1.2,1.,1.2,0.,1.2,,0.0,,0.0
1981-08-26 18:02:10.490 ,2,0,0.,1.2,0.,1.2,0.,1.2,,0.0,,0.0
1981-08-26 18:02:11.690 ,2,0,0.,1.2,0.,1.2,0.,1.2,,0.0,,0.0
1981-08-26 18:02:12.890 ,2,0,0.,1.2,0.,1.2,0.,1.2,,0.0,,0.0
1981-08-26 18:02:14.090 ,2,0,0.,1.2,0.,1.2,0.,1.2,,0.0,,0.0
1981-08-26 18:02:15.290 ,2,0,0.,1.2,0.,1.2,0.,1.2,,0.0,,0.0
1981-08-26 18:02:16.490 ,2,0,1.,1.2,0.,1.2,0.,1.2,,0.0,,0.0
1981-08-26 18:02:17.690 ,2,0,0.,1.2,0.,1.2,0.,1.2,,0.0,,0.0
1981-08-26 18:02:18.890 ,2,0,2.,1.2,0.,1.2,0.,1.2,,0.0,,0.0
1981-08-26 18:02:20.090 ,2,0,0.,1.2,0.,1.2,0.,1.2,,0.0,,0.0
1981-08-26 18:02:21.290 ,2,0,0.,1.2,0.,1.2,0.,1.2,,0.0,,0.0
1981-08-26 18:02:22.490 ,2,0,0.,1.2,0.,1.2,0.,1.2,,0.0,,0.0
1981-08-26 18:02:23.690 ,3,0,1.,1.2,1.,1.2,1.,1.2,,0.0,,0.0
1981-08-26 18:02:24.890 ,3,0,1.,1.2,1.,1.2,1.,1.2,,0.0,,0.0
1981-08-26 18:02:26.090 ,3,0,1.,1.2,0.,1.2,0.,1.2,,0.0,,0.0
1981-08-26 18:02:27.290 ,3,0,0.,1.2,0.,1.2,0.,1.2,,0.0,,0.0
1981-08-26 18:02:28.490 ,3,0,0.,1.2,0.,1.2,0.,1.2,,0.0,,0.0
1981-08-26 18:02:29.690 ,3,0,0.,1.2,0.,1.2,0.,1.2,,0.0,,0.0
1981-08-26 18:02:30.890 ,3,0,0.,1.2,0.,1.2,0.,1.2,,0.0,,0.0
1981-08-26 18:02:32.090 ,3,0,0.,1.2,0.,1.2,0.,1.2,,0.0,,0.0
1981-08-26 18:02:33.290 ,3,0,0.,1.2,0.,1.2,0.,1.2,,0.0,,0.0
1981-08-26 18:02:34.490 ,3,0,0.,1.2,0.,1.2,0.,1.2,,0.0,,0.0
1981-08-26 18:02:35.690 ,3,0,0.,1.2,0.,1.2,0.,1.2,,0.0,,0.0
1981-08-26 18:02:36.890 ,3,0,0.,1.2,0.,1.2,0.,1.2,,0.0,,0.0
1981-08-26 18:02:38.090 ,3,0,0.,1.2,0.,1.2,0.,1.2,,0.0,,0.0
1981-08-26 18:02:39.290 ,3,0,0.,1.2,0.,1.2,0.,1.2,,0.0,,0.0
1981-08-26 18:02:40.490 ,3,0,0.,1.2,0.,1.2,0.,1.2,,0.0,,0.0
1981-08-26 18:02:41.690 ,3,0,0.,1.2,0.,1.2,0.,1.2,,0.0,,0.0
1981-08-26 18:02:42.890 ,3,0,0.,1.2,0.,1.2,0.,1.2,,0.0,,0.0
1981-08-26 18:02:44.090 ,3,0,0.,1.2,0.,1.2,0.,1.2,,0.0,,0.0
1981-08-26 18:02:45.290 ,3,0,0.,1.2,0.,1.2,0.,1.2,,0.0,,0.0
1981-08-26 18:02:46.490 ,3,0,0.,1.2,0.,1.2,0.,1.2,,0.0,,0.0
1981-08-26 18:02:47.690 ,3,0,0.,1.2,0.,1.2,0.,1.2,,0.0,,0.0
1981-08-26 18:02:48.890 ,3,0,0.,1.2,0.,1.2,0.,1.2,,0.0,,0.0
1981-08-26 18:02:50.090 ,3,0,1.,1.2,1.,1.2,1.,1.2,,0.0,,0.0
1981-08-26 18:02:51.290 ,3,0,1.,1.2,0.,1.2,0.,1.2,,0.0,,0.0
1981-08-26 18:02:52.490 ,3,0,0.,1.2,0.,1.2,0.,1.2,,0.0,,0.0
1981-08-26 18:02:53.690 ,3,0,0.,1.2,0.,1.2,0.,1.2,,0.0,,0.0
1981-08-26 18:02:54.890 ,3,0,0.,1.2,0.,1.2,0.,1.2,,0.0,,0.0
1981-08-26 18:02:56.090 ,3,0,0.,1.2,0.,1.2,0.,1.2,,0.0,,0.0
1981-08-26 18:02:57.290 ,3,0,0.,1.2,0.,1.2,0.,1.2,,0.0,,0.0
1981-08-26 18:02:58.490 ,3,0,1.,1.2,1.,1.2,1.,1.2,,0.0,,0.0
1981-08-26 18:02:59.690 ,3,0,1.,1.2,1.,1.2,1.,1.2,,0.0,,0.0
1981-08-26 18:03:00.890 ,3,0,0.,1.2,0.,1.2,0.,1.2,,0.0,,0.0
1981-08-26 18:03:02.090 ,3,0,0.,1.2,0.,1.2,0.,1.2,,0.0,,0.0
1981-08-26 18:03:03.290 ,3,0,0.,1.2,0.,1.2,0.,1.2,,0.0,,0.0
1981-08-26 18:03:04.490 ,3,0,0.,1.2,0.,1.2,0.,1.2,,0.0,,0.0
1981-08-26 18:03:05.690 ,3,0,0.,1.2,0.,1.2,0.,1.2,,0.0,,0.0
1981-08-26 18:03:06.890 ,3,0,0.,1.2,0.,1.2,0.,1.2,,0.0,,0.0
1981-08-26 18:03:08.090 ,3,0,1.,1.2,0.,1.2,0.,1.2,,0.0,,0.0
1981-08-26 18:03:09.290 ,3,0,1.,1.2,0.,1.2,0.,1.2,,0.0,,0.0
1981-08-26 18:03:10.490 ,3,0,0.,1.2,0.,1.2,0.,1.2,,0.0,,0.0
1981-08-26 18:03:11.690 ,4,0,0.,1.2,0.,1.2,0.,1.2,,0.0,,0.0
1981-08-26 18:03:12.890 ,4,0,0.,1.2,0.,1.2,0.,1.2,,0.0,,0.0
1981-08-26 18:03:14.090 ,4,0,0.,1.2,0.,1.2,0.,1.2,,0.0,,0.0
1981-08-26 18:03:15.290 ,4,0,0.,1.2,0.,1.2,0.,1.2,,0.0,,0.0
1981-08-26 18:03:16.490 ,4,0,0.,1.2,0.,1.2,0.,1.2,,0.0,,0.0
1981-08-26 18:03:17.690 ,4,0,0.,1.2,0.,1.2,0.,1.2,,0.0,,0.0
1981-08-26 18:03:18.890 ,4,0,1.,1.2,1.,1.2,0.,1.2,,0.0,,0.0
1981-08-26 18:03:20.090 ,4,0,2.,1.2,1.,1.2,0.,1.2,,0.0,,0.0
1981-08-26 18:03:21.290 ,4,0,0.,1.2,0.,1.2,0.,1.2,,0.0,,0.0
1981-08-26 18:03:22.490 ,4,0,0.,1.2,0.,1.2,0.,1.2,,0.0,,0.0
1981-08-26 18:03:23.690 ,4,0,1.,1.2,1.,1.2,0.,1.2,,0.0,,0.0
1981-08-26 18:03:24.890 ,4,0,0.,1.2,0.,1.2,0.,1.2,,0.0,,0.0
1981-08-26 18:03:26.090 ,4,0,0.,1.2,0.,1.2,0.,1.2,,0.0,,0.0
1981-08-26 18:03:27.290 ,4,0,0.,1.2,0.,1.2,0.,1.2,,0.0,,0.0
1981-08-26 18:03:28.490 ,4,0,0.,1.2,0.,1.2,0.,1.2,,0.0,,0.0
1981-08-26 18:03:29.690 ,4,0,0.,1.2,0.,1.2,0.,1.2,,0.0,,0.0
1981-08-26 18:03:30.890 ,4,0,0.,1.2,0.,1.2,0.,1.2,,0.0,,0.0
1981-08-26 18:03:32.090 ,4,0,2.,1.2,0.,1.2,0.,1.2,,0.0,,0.0
1981-08-26 18:03:33.290 ,4,0,0.,1.2,0.,1.2,0.,1.2,,0.0,,0.0
1981-08-26 18:03:34.490 ,4,0,0.,1.2,0.,1.2,0.,1.2,,0.0,,0.0
1981-08-26 18:03:35.690 ,4,0,0.,1.2,0.,1.2,0.,1.2,,0.0,,0.0
1981-08-26 18:03:36.890 ,4,0,0.,1.2,0.,1.2,0.,1.2,,0.0,,0.0
1981-08-26 18:03:38.090 ,4,0,1.,1.2,0.,1.2,0.,1.2,,0.0,,0.0
1981-08-26 18:03:39.290 ,4,0,0.,1.2,0.,1.2,0.,1.2,,0.0,,0.0
1981-08-26 18:03:40.490 ,4,0,0.,1.2,0.,1.2,0.,1.2,,0.0,,0.0
1981-08-26 18:03:41.690 ,4,0,1.,1.2,1.,1.2,1.,1.2,,0.0,,0.0
1981-08-26 18:03:42.890 ,4,0,0.,1.2,0.,1.2,0.,1.2,,0.0,,0.0
1981-08-26 18:03:44.090 ,4,0,1.,1.2,0.,1.2,0.,1.2,,0.0,,0.0
1981-08-26 18:03:45.290 ,4,0,0.,1.2,0.,1.2,0.,1.2,,0.0,,0.0
1981-08-26 18:03:46.490 ,4,0,0.,1.2,0.,1.2,0.,1.2,,0.0,,0.0
1981-08-26 18:03:47.690 ,4,0,0.,1.2,0.,1.2,0.,1.2,,0.0,,0.0
1981-08-26 18:03:48.890 ,4,0,0.,1.2,0.,1.2,0.,1.2,,0.0,,0.0
1981-08-26 18:03:50.090 ,4,0,0.,1.2,0.,1.2,0.,1.2,,0.0,,0.0
1981-08-26 18:03:51.290 ,4,0,0.,1.2,0.,1.2,0.,1.2,,0.0,,0.0
1981-08-26 18:03:52.490 ,4,0,0.,1.2,0.,1.2,0.,1.2,,0.0,,0.0
1981-08-26 18:03:53.690 ,4,0,0.,1.2,0.,1.2,0.,1.2,,0.0,,0.0
1981-08-26 18:03:54.890 ,4,0,0.,1.2,0.,1.2,0.,1.2,,0.0,,0.0
1981-08-26 18:03:56.090 ,4,0,0.,1.2,0.,1.2,0.,1.2,,0.0,,0.0
1981-08-26 18:03:57.290 ,4,0,0.,1.2,0.,1.2,0.,1.2,,0.0,,0.0
1981-08-26 18:03:58.490 ,4,0,0.,1.2,0.,1.2,0.,1.2,,0.0,,0.0
1981-08-26 18:03:59.690 ,5,0,0.,1.2,0.,1.2,0.,1.2,,0.0,,0.0
1981-08-26 18:04:00.890 ,5,0,0.,1.2,0.,1.2,0.,1.2,,0.0,,0.0
1981-08-26 18:04:02.090 ,5,0,0.,1.2,0.,1.2,0.,1.2,,0.0,,0.0
1981-08-26 18:04:03.290 ,5,0,0.,1.2,0.,1.2,0.,1.2,,0.0,,0.0
1981-08-26 18:04:04.490 ,5,0,0.,1.2,0.,1.2,0.,1.2,,0.0,,0.0
1981-08-26 18:04:05.690 ,5,0,0.,1.2,0.,1.2,0.,1.2,,0.0,,0.0
1981-08-26 18:04:06.890 ,5,0,0.,1.2,0.,1.2,0.,1.2,,0.0,,0.0
1981-08-26 18:04:08.090 ,5,0,0.,1.2,0.,1.2,0.,1.2,,0.0,,0.0
1981-08-26 18:04:09.290 ,5,0,0.,1.2,0.,1.2,0.,1.2,,0.0,,0.0
1981-08-26 18:04:10.490 ,5,0,0.,1.2,0.,1.2,0.,1.2,,0.0,,0.0
1981-08-26 18:04:11.690 ,5,0,1.,1.2,0.,1.2,0.,1.2,,0.0,,0.0
1981-08-26 18:04:12.890 ,5,0,0.,1.2,0.,1.2,0.,1.2,,0.0,,0.0
1981-08-26 18:04:14.090 ,5,0,0.,1.2,0.,1.2,0.,1.2,,0.0,,0.0
1981-08-26 18:04:15.290 ,5,0,0.,1.2,0.,1.2,0.,1.2,,0.0,,0.0
1981-08-26 18:04:16.490 ,5,0,0.,1.2,0.,1.2,0.,1.2,,0.0,,0.0
1981-08-26 18:04:17.690 ,5,0,,0,,0,,0,,0,,0
1981-08-26 18:04:18.890 ,5,0,0.,1.2,0.,1.2,0.,1.2,,0.0,,0.0
1981-08-26 18:04:20.090 ,5,0,1.,1.2,0.,1.2,0.,1.2,,0.0,,0.0
1981-08-26 18:04:21.290 ,5,0,1.,1.2,0.,1.2,0.,1.2,,0.0,,0.0
1981-08-26 18:04:22.490 ,5,0,1.,1.2,0.,1.2,0.,1.2,,0.0,,0.0
1981-08-26 18:04:23.690 ,5,0,2.,1.2,0.,1.2,0.,1.2,,0.0,,0.0
1981-08-26 18:04:24.890 ,5,0,0.,1.2,0.,1.2,0.,1.2,,0.0,,0.0
1981-08-26 18:04:26.090 ,5,0,0.,1.2,0.,1.2,0.,1.2,,0.0,,0.0
1981-08-26 18:04:27.290 ,5,0,0.,1.2,0.,1.2,0.,1.2,,0.0,,0.0
1981-08-26 18:04:28.490 ,5,0,0.,1.2,0.,1.2,0.,1.2,,0.0,,0.0
1981-08-26 18:04:29.690 ,5,0,0.,1.2,0.,1.2,0.,1.2,,0.0,,0.0
1981-08-26 18:04:30.890 ,5,0,0.,1.2,0.,1.2,0.,1.2,,0.0,,0.0
1981-08-26 18:04:32.090 ,5,0,0.,1.2,0.,1.2,0.,1.2,,0.0,,0.0
1981-08-26 18:04:33.290 ,5,0,0.,1.2,0.,1.2,0.,1.2,,0.0,,0.0
1981-08-26 18:04:34.490 ,5,0,0.,1.2,0.,1.2,0.,1.2,,0.0,,0.0
1981-08-26 18:04:35.690 ,5,0,0.,1.2,0.,1.2,0.,1.2,,0.0,,0.0
1981-08-26 18:04:36.890 ,5,0,0.,1.2,0.,1.2,0.,1.2,,0.0,,0.0
1981-08-26 18:04:38.090 ,5,0,0.,1.2,0.,1.2,0.,1.2,,0.0,,0.0
1981-08-26 18:04:39.290 ,5,0,0.,1.2,0.,1.2,0.,1.2,,0.0,,0.0
1981-08-26 18:04:40.490 ,5,0,0.,1.2,0.,1.2,0.,1.2,,0.0,,0.0
1981-08-26 18:04:41.690 ,5,0,0.,1.2,0.,1.2,0.,1.2,,0.0,,0.0
1981-08-26 18:04:42.890 ,5,0,0.,1.2,0.,1.2,0.,1.2,,0.0,,0.0
1981-08-26 18:04:44.090 ,5,0,0.,1.2,0.,1.2,0.,1.2,,0.0,,0.0
1981-08-26 18:04:45.290 ,5,0,0.,1.2,0.,1.2,0.,1.2,,0.0,,0.0
1981-08-26 18:04:46.490 ,5,0,2.,1.2,0.,1.2,0.,1.2,,0.0,,0.0
1981-08-26 18:04:47.690 ,6,0,1.,1.2,0.,1.2,0.,1.2,,0.0,,0.0
1981-08-26 18:04:48.890 ,6,0,0.,1.2,0.,1.2,0.,1.2,,0.0,,0.0
1981-08-26 18:04:50.090 ,6,0,0.,1.2,0.,1.2,0.,1.2,,0.0,,0.0
1981-08-26 18:04:51.290 ,6,0,1.,1.2,1.,1.2,1.,1.2,,0.0,,0.0
1981-08-26 18:04:52.490 ,6,0,0.,1.2,0.,1.2,0.,1.2,,0.0,,0.0
1981-08-26 18:04:53.690 ,6,0,0.,1.2,0.,1.2,0.,1.2,,0.0,,0.0
1981-08-26 18:04:54.890 ,6,0,1.,1.2,0.,1.2,0.,1.2,,0.0,,0.0
1981-08-26 18:04:56.090 ,6,0,0.,1.2,0.,1.2,0.,1.2,,0.0,,0.0
1981-08-26 18:04:57.290 ,6,0,0.,1.2,0.,1.2,0.,1.2,,0.0,,0.0
1981-08-26 18:04:58.490 ,6,0,0.,1.2,0.,1.2,0.,1.2,,0.0,,0.0
1981-08-26 18:04:59.690 ,6,0,0.,1.2,0.,1.2,0.,1.2,,0.0,,0.0
1981-08-26 18:05:00.890 ,6,0,0.,1.2,0.,1.2,0.,1.2,,0.0,,0.0
1981-08-26 18:05:02.090 ,6,0,1.,1.2,0.,1.2,0.,1.2,,0.0,,0.0
1981-08-26 18:05:03.290 ,6,0,0.,1.2,0.,1.2,0.,1.2,,0.0,,0.0
1981-08-26 18:05:04.490 ,6,0,0.,1.2,0.,1.2,0.,1.2,,0.0,,0.0
1981-08-26 18:05:05.690 ,6,0,0.,1.2,0.,1.2,0.,1.2,,0.0,,0.0
1981-08-26 18:05:06.890 ,6,0,1.,1.2,0.,1.2,0.,1.2,,0.0,,0.0
1981-08-26 18:05:08.090 ,6,0,0.,1.2,0.,1.2,0.,1.2,,0.0,,0.0
1981-08-26 18:05:09.290 ,6,0,0.,1.2,0.,1.2,0.,1.2,,0.0,,0.0
1981-08-26 18:05:10.490 ,6,0,0.,1.2,0.,1.2,0.,1.2,,0.0,,0.0
1981-08-26 18:05:11.690 ,6,0,0.,1.2,0.,1.2,0.,1.2,,0.0,,0.0
1981-08-26 18:05:12.890 ,6,0,0.,1.2,0.,1.2,0.,1.2,,0.0,,0.0
1981-08-26 18:05:14.090 ,6,0,0.,1.2,0.,1.2,0.,1.2,,0.0,,0.0
1981-08-26 18:05:15.290 ,6,0,0.,1.2,0.,1.2,0.,1.2,,0.0,,0.0
1981-08-26 18:05:16.490 ,6,0,0.,1.2,0.,1.2,0.,1.2,,0.0,,0.0
1981-08-26 18:05:17.690 ,6,0,0.,1.2,0.,1.2,0.,1.2,,0.0,,0.0
1981-08-26 18:05:18.890 ,6,0,0.,1.2,0.,1.2,0.,1.2,,0.0,,0.0
1981-08-26 18:05:20.090 ,6,0,0.,1.2,0.,1.2,0.,1.2,,0.0,,0.0
1981-08-26 18:05:21.290 ,6,0,1.,1.2,1.,1.2,0.,1.2,,0.0,,0.0
1981-08-26 18:05:22.490 ,6,0,0.,1.2,0.,1.2,0.,1.2,,0.0,,0.0
1981-08-26 18:05:23.690 ,6,0,0.,1.2,0.,1.2,0.,1.2,,0.0,,0.0
1981-08-26 18:05:24.890 ,6,0,0.,1.2,0.,1.2,0.,1.2,,0.0,,0.0
1981-08-26 18:05:26.090 ,6,0,0.,1.2,0.,1.2,0.,1.2,,0.0,,0.0
1981-08-26 18:05:27.290 ,6,0,0.,1.2,0.,1.2,0.,1.2,,0.0,,0.0
1981-08-26 18:05:28.490 ,6,0,0.,1.2,0.,1.2,0.,1.2,,0.0,,0.0
1981-08-26 18:05:29.690 ,6,0,0.,1.2,0.,1.2,0.,1.2,,0.0,,0.0
1981-08-26 18:05:30.890 ,6,0,0.,1.2,0.,1.2,0.,1.2,,0.0,,0.0
1981-08-26 18:05:32.090 ,6,0,0.,1.2,0.,1.2,0.,1.2,,0.0,,0.0
1981-08-26 18:05:33.290 ,6,0,0.,1.2,0.,1.2,0.,1.2,,0.0,,0.0
1981-08-26 18:05:34.490 ,6,0,0.,1.2,0.,1.2,0.,1.2,,0.0,,0.0
1981-08-26 18:05:35.690 ,7,0,0.,1.2,0.,1.2,0.,1.2,,0.0,,0.0
1981-08-26 18:05:36.890 ,7,0,0.,1.2,0.,1.2,0.,1.2,,0.0,,0.0
1981-08-26 18:05:38.090 ,7,0,0.,1.2,0.,1.2,0.,1.2,,0.0,,0.0
1981-08-26 18:05:39.290 ,7,0,0.,1.2,0.,1.2,0.,1.2,,0.0,,0.0
1981-08-26 18:05:40.490 ,7,0,0.,1.2,0.,1.2,0.,1.2,,0.0,,0.0
1981-08-26 18:05:41.690 ,7,0,0.,1.2,0.,1.2,0.,1.2,,0.0,,0.0
1981-08-26 18:05:42.890 ,7,0,0.,1.2,0.,1.2,0.,1.2,,0.0,,0.0
1981-08-26 18:05:44.090 ,7,0,0.,1.2,0.,1.2,0.,1.2,,0.0,,0.0
1981-08-26 18:05:45.290 ,7,0,0.,1.2,0.,1.2,0.,1.2,,0.0,,0.0
1981-08-26 18:05:46.490 ,7,0,0.,1.2,0.,1.2,0.,1.2,,0.0,,0.0
1981-08-26 18:05:47.690 ,7,0,0.,1.2,0.,1.2,0.,1.2,,0.0,,0.0
1981-08-26 18:05:48.890 ,7,0,0.,1.2,0.,1.2,0.,1.2,,0.0,,0.0
1981-08-26 18:05:50.090 ,7,0,0.,1.2,0.,1.2,0.,1.2,,0.0,,0.0
1981-08-26 18:05:51.290 ,7,0,1.,1.2,0.,1.2,0.,1.2,,0.0,,0.0
1981-08-26 18:05:52.490 ,7,0,0.,1.2,0.,1.2,0.,1.2,,0.0,,0.0
1981-08-26 18:05:53.690 ,7,0,0.,1.2,0.,1.2,0.,1.2,,0.0,,0.0
1981-08-26 18:05:54.890 ,7,0,0.,1.2,0.,1.2,0.,1.2,,0.0,,0.0
1981-08-26 18:05:56.090 ,7,0,0.,1.2,0.,1.2,0.,1.2,,0.0,,0.0
1981-08-26 18:05:57.290 ,7,0,0.,1.2,0.,1.2,0.,1.2,,0.0,,0.0
1981-08-26 18:05:58.490 ,7,0,0.,1.2,0.,1.2,0.,1.2,,0.0,,0.0
1981-08-26 18:05:59.690 ,7,0,0.,1.2,0.,1.2,0.,1.2,,0.0,,0.0
1981-08-26 18:06:00.890 ,7,0,0.,1.2,0.,1.2,0.,1.2,,0.0,,0.0
1981-08-26 18:06:02.090 ,7,0,0.,1.2,0.,1.2,0.,1.2,,0.0,,0.0
1981-08-26 18:06:03.290 ,7,0,0.,1.2,0.,1.2,0.,1.2,,0.0,,0.0
1981-08-26 18:06:04.490 ,7,0,0.,1.2,0.,1.2,0.,1.2,,0.0,,0.0
1981-08-26 18:06:05.690 ,7,0,0.,1.2,0.,1.2,0.,1.2,,0.0,,0.0
1981-08-26 18:06:06.890 ,7,0,0.,1.2,0.,1.2,0.,1.2,,0.0,,0.0
1981-08-26 18:06:08.090 ,7,0,0.,1.2,0.,1.2,0.,1.2,,0.0,,0.0
1981-08-26 18:06:09.290 ,7,0,0.,1.2,0.,1.2,0.,1.2,,0.0,,0.0
1981-08-26 18:06:10.490 ,7,0,0.,1.2,0.,1.2,0.,1.2,,0.0,,0.0
1981-08-26 18:06:11.690 ,7,0,0.,1.2,0.,1.2,0.,1.2,,0.0,,0.0
1981-08-26 18:06:12.890 ,7,0,0.,1.2,0.,1.2,0.,1.2,,0.0,,0.0
1981-08-26 18:06:14.090 ,7,0,0.,1.2,0.,1.2,0.,1.2,,0.0,,0.0
1981-08-26 18:06:15.290 ,7,0,0.,1.2,0.,1.2,0.,1.2,,0.0,,0.0
1981-08-26 18:06:16.490 ,7,0,0.,1.2,0.,1.2,0.,1.2,,0.0,,0.0
1981-08-26 18:06:17.690 ,7,0,0.,1.2,0.,1.2,0.,1.2,,0.0,,0.0
1981-08-26 18:06:18.890 ,7,0,0.,1.2,0.,1.2,0.,1.2,,0.0,,0.0
1981-08-26 18:06:20.090 ,7,0,0.,1.2,0.,1.2,0.,1.2,,0.0,,0.0
1981-08-26 18:06:21.290 ,7,0,0.,1.2,0.,1.2,0.,1.2,,0.0,,0.0
1981-08-26 18:06:22.490 ,7,0,0.,1.2,0.,1.2,0.,1.2,,0.0,,0.0
1981-08-26 18:06:23.690 ,7,0,0.,1.2,0.,1.2,0.,1.2,,0.0,,0.0
1981-08-26 18:06:24.890 ,7,0,0.,1.2,0.,1.2,0.,1.2,,0.0,,0.0
1981-08-26 18:06:26.090 ,7,0,0.,1.2,0.,1.2,0.,1.2,,0.0,,0.0
1981-08-26 18:06:27.290 ,7,0,0.,1.2,0.,1.2,0.,1.2,,0.0,,0.0
1981-08-26 18:06:28.490 ,7,0,1.,1.2,1.,1.2,0.,1.2,,0.0,,0.0
1981-08-26 18:06:29.690 ,7,0,0.,1.2,0.,1.2,0.,1.2,,0.0,,0.0
1981-08-26 18:06:30.890 ,7,0,0.,1.2,0.,1.2,0.,1.2,,0.0,,0.0
1981-08-26 18:06:32.090 ,7,0,0.,1.2,0.,1.2,0.,1.2,,0.0,,0.0
1981-08-26 18:06:33.290 ,7,0,0.,1.2,0.,1.2,0.,1.2,,0.0,,0.0
1981-08-26 18:06:34.490 ,7,0,2.,1.2,1.,1.2,0.,1.2,,0.0,,0.0
1981-08-26 18:06:35.690 ,7,0,0.,1.2,0.,1.2,0.,1.2,,0.0,,0.0
1981-08-26 18:06:36.890 ,7,0,0.,1.2,0.,1.2,0.,1.2,,0.0,,0.0
1981-08-26 18:06:38.090 ,7,0,0.,1.2,0.,1.2,0.,1.2,,0.0,,0.0
1981-08-26 18:06:39.290 ,7,0,0.,1.2,0.,1.2,0.,1.2,,0.0,,0.0
1981-08-26 18:06:40.490 ,7,0,0.,1.2,0.,1.2,0.,1.2,,0.0,,0.0
1981-08-26 18:06:41.690 ,7,0,0.,1.2,0.,1.2,0.,1.2,,0.0,,0.0
1981-08-26 18:06:42.890 ,7,0,0.,1.2,0.,1.2,0.,1.2,,0.0,,0.0
1981-08-26 18:06:44.090 ,7,0,0.,1.2,0.,1.2,0.,1.2,,0.0,,0.0
1981-08-26 18:06:45.290 ,7,0,0.,1.2,0.,1.2,0.,1.2,,0.0,,0.0
1981-08-26 18:06:46.490 ,7,0,0.,1.2,0.,1.2,0.,1.2,,0.0,,0.0
1981-08-26 18:06:47.690 ,7,0,0.,1.2,0.,1.2,0.,1.2,,0.0,,0.0
1981-08-26 18:06:48.890 ,7,0,0.,1.2,0.,1.2,0.,1.2,,0.0,,0.0
1981-08-26 18:06:50.090 ,7,0,1.,1.2,1.,1.2,0.,1.2,,0.0,,0.0
1981-08-26 18:06:51.290 ,7,0,0.,1.2,0.,1.2,0.,1.2,,0.0,,0.0
1981-08-26 18:06:52.490 ,7,0,0.,1.2,0.,1.2,0.,1.2,,0.0,,0.0
1981-08-26 18:06:53.690 ,7,0,0.,1.2,0.,1.2,0.,1.2,,0.0,,0.0
1981-08-26 18:06:54.890 ,7,0,0.,1.2,0.,1.2,0.,1.2,,0.0,,0.0
1981-08-26 18:06:56.090 ,7,0,0.,1.2,0.,1.2,0.,1.2,,0.0,,0.0
1981-08-26 18:06:57.290 ,7,0,0.,1.2,0.,1.2,0.,1.2,,0.0,,0.0
1981-08-26 18:06:58.490 ,7,0,1.,1.2,0.,1.2,0.,1.2,,0.0,,0.0
1981-08-26 18:06:59.690 ,7,0,0.,1.2,0.,1.2,0.,1.2,,0.0,,0.0
1981-08-26 18:07:00.890 ,7,0,0.,1.2,0.,1.2,0.,1.2,,0.0,,0.0
1981-08-26 18:07:02.090 ,7,0,1.,1.2,1.,1.2,1.,1.2,,0.0,,0.0
1981-08-26 18:07:03.290 ,7,0,0.,1.2,0.,1.2,0.,1.2,,0.0,,0.0
1981-08-26 18:07:04.490 ,7,0,0.,1.2,0.,1.2,0.,1.2,,0.0,,0.0
1981-08-26 18:07:05.690 ,7,0,0.,1.2,0.,1.2,0.,1.2,,0.0,,0.0
1981-08-26 18:07:06.890 ,7,0,1.,1.2,1.,1.2,0.,1.2,,0.0,,0.0
1981-08-26 18:07:08.090 ,7,0,0.,1.2,0.,1.2,0.,1.2,,0.0,,0.0
1981-08-26 18:07:09.290 ,7,0,0.,1.2,0.,1.2,0.,1.2,,0.0,,0.0
1981-08-26 18:07:10.490 ,7,0,0.,1.2,0.,1.2,0.,1.2,,0.0,,0.0
1981-08-26 18:07:11.690 ,6,0,0.,1.2,0.,1.2,0.,1.2,,0.0,,0.0
1981-08-26 18:07:12.890 ,6,0,0.,1.2,0.,1.2,0.,1.2,,0.0,,0.0
1981-08-26 18:07:14.090 ,6,0,1.,1.2,0.,1.2,0.,1.2,,0.0,,0.0
1981-08-26 18:07:15.290 ,6,0,0.,1.2,0.,1.2,0.,1.2,,0.0,,0.0
1981-08-26 18:07:16.490 ,6,0,0.,1.2,0.,1.2,0.,1.2,,0.0,,0.0
1981-08-26 18:07:17.690 ,6,0,0.,1.2,0.,1.2,0.,1.2,,0.0,,0.0
1981-08-26 18:07:18.890 ,6,0,1.,1.2,0.,1.2,0.,1.2,,0.0,,0.0
1981-08-26 18:07:20.090 ,6,0,0.,1.2,0.,1.2,0.,1.2,,0.0,,0.0
1981-08-26 18:07:21.290 ,6,0,0.,1.2,0.,1.2,0.,1.2,,0.0,,0.0
1981-08-26 18:07:22.490 ,6,0,0.,1.2,0.,1.2,0.,1.2,,0.0,,0.0
1981-08-26 18:07:23.690 ,6,0,0.,1.2,0.,1.2,0.,1.2,,0.0,,0.0
1981-08-26 18:07:24.890 ,6,0,0.,1.2,0.,1.2,0.,1.2,,0.0,,0.0
1981-08-26 18:07:26.090 ,6,0,1.,1.2,0.,1.2,0.,1.2,,0.0,,0.0
1981-08-26 18:07:27.290 ,6,0,1.,1.2,0.,1.2,0.,1.2,,0.0,,0.0
1981-08-26 18:07:28.490 ,6,0,0.,1.2,0.,1.2,0.,1.2,,0.0,,0.0
1981-08-26 18:07:29.690 ,6,0,1.,1.2,1.,1.2,1.,1.2,,0.0,,0.0
1981-08-26 18:07:30.890 ,6,0,0.,1.2,0.,1.2,0.,1.2,,0.0,,0.0
1981-08-26 18:07:32.090 ,6,0,1.,1.2,0.,1.2,0.,1.2,,0.0,,0.0
1981-08-26 18:07:33.290 ,6,0,1.,1.2,0.,1.2,0.,1.2,,0.0,,0.0
1981-08-26 18:07:34.490 ,6,0,0.,1.2,0.,1.2,0.,1.2,,0.0,,0.0
1981-08-26 18:07:35.690 ,6,0,0.,1.2,0.,1.2,0.,1.2,,0.0,,0.0
1981-08-26 18:07:36.890 ,6,0,0.,1.2,0.,1.2,0.,1.2,,0.0,,0.0
1981-08-26 18:07:38.090 ,6,0,0.,1.2,0.,1.2,0.,1.2,,0.0,,0.0
1981-08-26 18:07:39.290 ,6,0,0.,1.2,0.,1.2,0.,1.2,,0.0,,0.0
1981-08-26 18:07:40.490 ,6,0,0.,1.2,0.,1.2,0.,1.2,,0.0,,0.0
1981-08-26 18:07:41.690 ,6,0,0.,1.2,0.,1.2,0.,1.2,,0.0,,0.0
1981-08-26 18:07:42.890 ,6,0,0.,1.2,0.,1.2,0.,1.2,,0.0,,0.0
1981-08-26 18:07:44.090 ,6,0,0.,1.2,0.,1.2,0.,1.2,,0.0,,0.0
1981-08-26 18:07:45.290 ,6,0,0.,1.2,0.,1.2,0.,1.2,,0.0,,0.0
1981-08-26 18:07:46.490 ,6,0,0.,1.2,0.,1.2,0.,1.2,,0.0,,0.0
1981-08-26 18:07:47.690 ,6,0,0.,1.2,0.,1.2,0.,1.2,,0.0,,0.0
1981-08-26 18:07:48.890 ,6,0,0.,1.2,0.,1.2,0.,1.2,,0.0,,0.0
1981-08-26 18:07:50.090 ,6,0,0.,1.2,0.,1.2,0.,1.2,,0.0,,0.0
1981-08-26 18:07:51.290 ,6,0,0.,1.2,0.,1.2,0.,1.2,,0.0,,0.0
1981-08-26 18:07:52.490 ,6,0,0.,1.2,0.,1.2,0.,1.2,,0.0,,0.0
1981-08-26 18:07:53.690 ,6,0,1.,1.2,0.,1.2,0.,1.2,,0.0,,0.0
1981-08-26 18:07:54.890 ,6,0,1.,1.2,0.,1.2,0.,1.2,,0.0,,0.0
1981-08-26 18:07:56.090 ,6,0,1.,1.2,0.,1.2,0.,1.2,,0.0,,0.0
1981-08-26 18:07:57.290 ,6,0,1.,1.2,0.,1.2,0.,1.2,,0.0,,0.0
1981-08-26 18:07:58.490 ,6,0,0.,1.2,0.,1.2,0.,1.2,,0.0,,0.0
1981-08-26 18:07:59.690 ,5,0,0.,1.2,0.,1.2,0.,1.2,,0.0,,0.0
1981-08-26 18:08:00.890 ,5,0,0.,1.2,0.,1.2,0.,1.2,,0.0,,0.0
1981-08-26 18:08:02.090 ,5,0,0.,1.2,0.,1.2,0.,1.2,,0.0,,0.0
1981-08-26 18:08:03.290 ,5,0,0.,1.2,0.,1.2,0.,1.2,,0.0,,0.0
1981-08-26 18:08:04.490 ,5,0,0.,1.2,0.,1.2,0.,1.2,,0.0,,0.0
1981-08-26 18:08:05.690 ,5,0,0.,1.2,0.,1.2,0.,1.2,,0.0,,0.0
1981-08-26 18:08:06.890 ,5,0,0.,1.2,0.,1.2,0.,1.2,,0.0,,0.0
1981-08-26 18:08:08.090 ,5,0,1.,1.2,0.,1.2,0.,1.2,,0.0,,0.0
1981-08-26 18:08:09.290 ,5,0,0.,1.2,0.,1.2,0.,1.2,,0.0,,0.0
1981-08-26 18:08:10.490 ,5,0,0.,1.2,0.,1.2,0.,1.2,,0.0,,0.0
1981-08-26 18:08:11.690 ,5,0,1.,1.2,0.,1.2,0.,1.2,,0.0,,0.0
1981-08-26 18:08:12.890 ,5,0,0.,1.2,0.,1.2,0.,1.2,,0.0,,0.0